Etusivu
METAR-TAF:

METAR-TAF

Lentoasemat :

Hutchinson County Airport

Borger, Texas, Yhdysvallat

Leveyspiiri: 35-41-42N, Pituuspiiri: 101-23-42W, korkeus merenpinnasta: 931 m

Tämänhetkinen sää

Tämä raportti tehtiin 14 minuuttia sitten, kello 07.51 UTC
Tuuli 4 kn etelästä
Lämpötila 8°C
Kosteus 61%
Ilmanpaine 1015 hPa
Näkyvyys: 16.1 km
selkeää

METAR: KBGD 050751Z AUTO 19004KT 10SM CLR 08/01 A2998 RMK AO2 SLP140 T00780011

Aika: 03:05 (08:05 UTC)


TAF: puuttuu

Säähavainnot ja -ennusteet yli 4000 lentoasemalta (METAR- ja TAF-raportit).

Käytössä olevat sääasemat on merkitty karttaan keltaisilla ja punaisilla pisteillä.

Aseta hiiri pisteen päälle nähdäksesi sääaseman nimen.

Klikkaa sitten nähdäksesi säähavainnot ja -ennusteet.

Kartan vaihtaminen: klikkaa mustalla rastilla varustettuja vihreitä pisteitä, niin voit zoomata sisään; viivalla varustettua vihreää pistettä, niin voit zoomata ulos tai vihreitä nuolia, niin pääset viereisille kartoille.


METAR-TAF: